Dewpoint
56 55 54 54 54 55 55 57 60 62 62 59 54 52 54 59 61 61 61 59 58 57 54 55 53 51 49 47 47 42 41 39
54 56 57 56 56 56 56 58 60 60 61 58 54 52 55 60 62 62 61 59 58 57 54 54 52 50 49 49 45 43 40 39
50 54 55 56 56 58 58 57 58 60 59 59 54 55 54 57 60 61 61 60 57 56 54 52 51 48 49 47 45 41 39 41
50 50 53 55 55 56 57 57 59 60 59 58 55 57 59 59 60 60 59 59 56 54 54 51 50 48 46 46 43 39 39 41
48 50 50 52 54 56 56 57 59 59 60 58 57 54 53 56 58 57 56 57 55 52 52 51 50 47 45 43 38 41 41 39
48 50 50 51 54 56 57 57 59 59 60 60 59 58 56 57 57 55 55 55 53 51 51 50 49 45 44 41 43 42 42 43
47 48 51 52 54 56 57 57 58 60 61 61 61 61 59 59 56 53 52 52 51 50 48 48 47 43 43 43 44 44 42 40
47 47 49 52 54 57 58 57 56 60 61 61 61 61 61 58 57 54 51 51 50 49 47 46 43 42 42 44 44 43 41 40
45 48 49 51 54 57 59 58 58 60 61 59 60 60 60 59 59 56 52 50 49 47 46 44 41 41 43 43 42 41 40 38
40 45 48 50 54 57 60 59 59 59 60 60 59 59 59 58 58 56 52 50 47 46 44 41 42 42 43 41 40 38 37 39
41 43 45 49 52 56 60 60 58 59 61 60 59 59 59 58 57 55 51 48 45 44 42 41 42 42 40 39 38 37 37 39
43 45 48 50 52 54 57 57 57 58 59 59 59 59 59 58 57 55 52 50 47 43 41 41 42 39 38 37 38 34 37 39
43 47 51 52 53 54 55 56 56 57 59 59 59 58 57 57 55 54 51 48 44 43 42 42 38 37 37 38 37 35 41 39
45 49 51 53 55 56 56 57 57 57 57 56 56 55 54 53 52 50 48 46 45 42 41 39 37 38 37 38 40 41 42 39
44 49 50 52 55 56 56 57 56 54 53 53 53 53 52 53 52 50 48 46 42 41 41 41 39 36 36 39 41 41 40 40
46 48 50 52 53 54 54 53 53 52 51 50 50 50 48 47 46 45 44 44 40 39 38 40 40 39 40 40 39 39 39 37
45 48 50 50 51 51 51 50 50 49 47 46 45 44 42 41 41 40 39 38 39 40 40 41 40 38 39 37 38 39 39 34
43 44 45 46 48 49 48 47 47 46 44 43 42 41 39 39 38 37 39 39 41 41 40 39 39 40 38 38 37 36 33 32
40 41 42 44 45 45 45 43 43 42 41 39 39 40 39 39 39 39 40 40 40 39 40 40 41 39 37 37 34 33 32 30
Lifted_Index
-3 -3 -3 -2 -2 -1 -1 -1 -2 -3 -3 -2 -1 -0 -1 -3 -4 -3 -2 -1 -0 0 1 1 1 1 1 3 5 7 7 8
-3 -3 -3 -3 -2 -2 -2 -2 -3 -3 -3 -2 -1 -1 -1 -3 -3 -3 -2 -1 -0 0 1 1 1 1 2 4 6 7 7 8
-3 -3 -3 -3 -3 -3 -3 -3 -3 -4 -4 -3 -2 -1 -2 -3 -3 -3 -2 -1 -0 0 1 1 1 1 2 5 6 7 7 6
-3 -3 -3 -3 -3 -3 -3 -3 -4 -4 -4 -4 -3 -2 -2 -2 -2 -2 -1 -1 -0 1 1 1 1 2 4 6 7 7 6 5
-3 -3 -3 -3 -3 -3 -3 -4 -4 -5 -4 -4 -3 -2 -2 -2 -2 -1 -1 -1 0 1 1 1 2 3 5 6 6 6 5 4
-3 -3 -3 -3 -3 -3 -3 -3 -4 -5 -5 -4 -4 -3 -3 -2 -1 -1 -1 -0 0 1 1 2 3 4 5 6 6 6 5 4
-3 -3 -4 -4 -4 -3 -3 -3 -4 -4 -4 -4 -4 -3 -3 -2 -1 -1 -1 -0 0 1 2 3 4 5 6 6 7 6 5 5
-3 -4 -4 -4 -4 -4 -4 -4 -3 -4 -3 -3 -3 -3 -2 -2 -1 -1 -1 -1 -0 1 2 3 4 5 6 7 7 6 6 6
-3 -4 -4 -4 -5 -5 -5 -4 -4 -4 -3 -2 -2 -2 -2 -1 -1 -1 -1 -1 -1 0 1 3 4 5 7 7 7 7 8 9
-2 -3 -3 -4 -4 -5 -5 -5 -5 -4 -3 -2 -2 -2 -2 -2 -2 -2 -2 -1 -1 0 1 2 3 5 7 8 8 9 10 10
-2 -2 -3 -3 -4 -4 -5 -5 -5 -4 -4 -3 -2 -2 -2 -2 -2 -2 -1 -1 -1 -0 1 1 3 5 7 8 8 10 10 10
-2 -2 -3 -3 -3 -4 -4 -5 -5 -5 -4 -3 -3 -2 -2 -2 -2 -1 -1 -1 -0 -0 0 1 3 5 7 8 9 10 10 9
-2 -3 -3 -4 -4 -4 -4 -4 -4 -4 -4 -3 -3 -2 -2 -1 -1 -1 -1 -0 0 0 1 2 4 6 8 9 10 10 9 8
-2 -3 -4 -4 -4 -4 -4 -4 -4 -4 -3 -3 -2 -2 -1 -1 -0 -0 0 0 1 1 1 3 6 8 9 10 10 10 9 8
-2 -3 -4 -4 -4 -4 -4 -3 -3 -3 -3 -2 -2 -2 -1 -0 0 1 1 1 1 1 3 5 8 9 10 10 10 9 9 9
-2 -2 -3 -3 -3 -3 -3 -3 -3 -2 -2 -2 -1 -1 -0 0 1 1 2 2 3 4 5 7 8 9 9 9 9 9 9 9
-1 -2 -2 -2 -2 -2 -2 -2 -1 -1 -0 0 1 1 1 2 2 3 3 4 6 7 7 8 9 9 9 9 9 9 10 10
0 -0 -0 -0 -0 0 1 1 2 2 2 3 3 3 3 3 4 4 5 7 8 8 9 9 9 9 9 9 9 10 11 11
1 1 1 2 2 2 3 3 3 4 4 4 4 4 4 5 5 6 7 8 9 9 10 10 9 9 9 9 10 11 12 12